Tracking 30061 objects as of 8-Dec-2024
HD Live streaming from Space Station
objects crossing your sky now

GORIZONT 30

Track GORIZONT 30 now!
GORIZONT 30 is classified as:


NORAD ID: 23108
Int'l Code: 1994-030A
Perigee: 35,774.1 km
Apogee: 35,817.9 km
Inclination: 14.3 °
Period: 1,436.2 minutes
Semi major axis: 42166 km
RCS: 12.5892 m2 (large)
Launch date: May 20, 1994
Source: Commonwealth of Independent States (former USSR) (CIS)
Launch site: TYURATAM MISSILE AND SPACE COMPLEX (TTMTR)
Your satellite tracking list
Your tracking list is empty




NASA's NSSDC Master Catalog

Two Line Element Set (TLE):
1 23108U 94030A   24342.30368598 -.00000095  00000-0  00000-0 0  9992
2 23108  14.2873 352.3420 0005194 247.4335 296.3309  1.00263891111877
Source of the keplerian elements: AFSPC